Regional Weather Roundup
Issued by NWS

Home | Current Version | Previous Version | Text Only | Print | Product List | Glossary Off
Versions: 1 2 3 4 5 6 7 8 9 10 11 12 13 14 15 16 17 18 19 20 21 22 23 24 25 26 27 28 29 30 31 32 33 34 35 36 37 38 39 40 41 42 43 44 45 46 47 48 49 50

000
ASUS43 KTOP 100759
RWRKS

WEATHER ROUNDUP FOR KANSAS
NATIONAL WEATHER SERVICE GOODLAND KS
200 AM CST WED FEB 10 2016

NOTE:  "FAIR" INDICATES FEW OR NO CLOUDS BELOW 12,000 FEET WITH NO
SIGNIFICANT WEATHER AND/OR OBSTRUCTIONS TO VISIBILITY.

KSZ001>006-013>018-027>032-041>047-100900-
NORTHWEST KANSAS

CITY           SKY/WX    TMP DP  RH WIND       PRES   REMARKS
GOODLAND       CLEAR     37  25  61 W15       30.15F WCI  28
HAYS           CLEAR     28  16  59 S7        30.14F
HILL CITY      CLEAR     30  24  78 W7        30.11F
RUSSELL        CLEAR     28  22  78 SW14      30.13F WCI  17
$$

KSZ061>065-074>080-084>089-100900-
SOUTHWEST KANSAS

CITY           SKY/WX    TMP DP  RH WIND       PRES   REMARKS
DODGE CITY     CLEAR     30  22  72 SW9       30.18F
ELKHART          N/A     37  21  52 W10         N/A  WCI  30
GARDEN CITY    CLEAR     33  25  72 W12       30.17F WCI  24
GREAT BEND     CLEAR     28  16  59 S12       30.17F WCI  18
LIBERAL        CLEAR     34  25  69 W10       30.21F WCI  26
$$

KSZ066>073-081>083-090>101-100900-
SOUTHEAST KANSAS

CITY           SKY/WX    TMP DP  RH WIND       PRES   REMARKS
CHANUTE        CLEAR     19   9  65 CALM      30.26F
COFFEYVILLE    CLEAR     21  11  65 CALM      30.29F
HUTCHINSON     CLOUDY    29  17  61 S9        30.21F
MEDICINE LODGE   N/A     27  19  72 S3        30.24F
NEWTON         CLOUDY    25  12  58 S9        30.21F
PARSONS        CLEAR     17  11  77 CALM      30.28F
WICHITA INTL   CLOUDY    28  15  58 S9        30.24S
WICHITA JABRA  CLOUDY    25  14  63 S7        30.23F
WINFIELD       CLOUDY    23  16  74 S3        30.27F
$$

KSZ007>012-019>026-033>040-048>060-102>105-100900-
NORTHEAST KANSAS

CITY           SKY/WX    TMP DP  RH WIND       PRES   REMARKS
CONCORDIA      CLOUDY    26  16  65 S8        30.17F
EMPORIA        CLEAR     17  11  77 S6        30.22F
LAWRENCE       CLOUDY    20  15  81 CALM      30.24F
MANHATTAN      CLOUDY    21  16  81 SW3       30.21F
OLATHE IND     CLOUDY    21  12  68 SW3       30.23F
OLATHE EXE     MOCLDY    19  10  68 CALM      30.22F
SALINA         CLOUDY    29  17  61 S8        30.20F
TOPEKA BILLARD CLOUDY    23  11  60 CALM      30.23F
TOPEKA FORBES  CLOUDY    21  13  71 CALM      30.22F
$$



USA.gov is the U.S. government's official web portal to all federal, state and local government web resources and services.